Location: *
(49.7115°N, 15.0136°E)
Time: 04:47:38
(UTC+00:00)

Cosmos 389 Rocket - Pass Details

Date: 27 February 2020
Orbit: 443 x 477 km, 81.1° (Epoch: 02 April)

Event Time Altitude Azimuth Distance (km) Brightness Sun altitude
Rises 19:15:34 0° 345° (NNW) 2,548 6.7 -25.9°
Reaches altitude 10° 19:17:42 10° 341° (NNW) 1,663 5.7 -26.2°
Enters shadow 19:19:33 28° 332° (NNW) 936 4.4 -26.5°
